STARLINK-2418

operational
NORAD ID: 48097 Int'l Des: 2021-027 Owner: SPXS Country: US Constellation: starlink
LEOCIRCULARSTARLINK_TYPE

关于 STARLINK-2418

正在加载描述...

实时位置

正在加载3D地球...

即将过境

高度历史

Altitude vs Time

uPlot chart will show altitude changes over time

两行轨道根数

1 48097U 21027F 25251.27445721 -.00000165 00000-0 77904-5 0 9992
2 48097 53.0531 250.5108 0001458 86.4950 273.6206 15.06395524245207
Epoch: Sep 8, 2025 • Age: 28 hours

当前状态

高度 551.9 km
速度 7.59 km/s
星下点 48.99°N, 134.81°W
发射日期 Apr 7, 2021
运行时间 4.4 years
类型 internet

技术详情

分类 Payload
质量 260.00 kg
干质量 248.00 kg
总质量 260.00 kg
长度 0.20 m
直径 2.80 m
跨度 9.00 m
形状 Box + pan
制造商 SPXS
平台类型 Starlink
阶段状态 In Orbit
所有者/国家 SPXS/US

大型星座

Loading constellations...